Regional Weather Roundup
Issued by NWS

Home | Current Version | Previous Version | Text Only | Print | Product List | Glossary On
Versions: 1 2 3 4 5 6 7 8 9 10 11 12 13 14 15 16 17 18 19 20 21 22 23 24 25 26 27 28 29 30 31 32 33 34 35 36 37 38 39 40 41 42 43 44 45 46 47 48 49 50
000
ASUS43 KDTX 231410
RWRMI
MICHIGAN HOURLY REGIONAL WEATHER ROUNDUP
NATIONAL WEATHER SERVICE DETROIT/PONTIAC MI
1000 AM EDT SAT MAY 23 2015

NOTE: "FAIR" INDICATES FEW OR NO CLOUDS BELOW 12,000 FEET WITH NO
SIGNIFICANT WEATHER AND/OR OBSTRUCTION TO VISIBILITY.

MIZ047>049-052>055-059>063-066>070-074>076-081>083-231500-
SOUTHEAST LOWER MICHIGAN

CITY           SKY/WX    TMP DP  RH WIND       PRES   REMARKS
ADRIAN         SUNNY     61  38  42 SW8       30.41S
ALMA           SUNNY     60  41  50 S8        30.38S
ANN ARBOR      SUNNY     60  42  51 SW6       30.41S
BAD AXE        SUNNY     57  31  36 SW10      30.39S
CARO           SUNNY     60  36  39 SW9       30.37S
DETROIT CITY   SUNNY     59  42  53 S9        30.41F
DETROIT        MOSUNNY   61  45  55 SE6       30.42S
FLINT          SUNNY     63  38  39 SW10      30.39S
GROSSE ILE     SUNNY     59  48  67 SE3       30.40F
HILLSDALE      SUNNY     62  38  42 S8        30.39S
HOWELL         SUNNY     59  42  52 S7        30.39S

CITY           SKY/WX    TMP DP  RH WIND       PRES   REMARKS
JACKSON        SUNNY     62  43  49 S8        30.39F
LAMBERTVILLE   SUNNY     64  36  34 CALM      30.40S
LANSING        SUNNY     62  40  44 S8        30.39S
LAPEER         FAIR      60  34  36 S8        30.39S
MASON          SUNNY     58  42  56 S8        30.39S
MONROE         SUNNY     64  37  36 SW7       30.39S
MT. CLEMENS    MOSUNNY   57  44  62 VRB5      30.39S
PONTIAC        MOSUNNY   60  34  37 S9        30.40S
PORT HOPE        N/A     57  29  34 SW10      30.36S
PORT HURON     SUNNY     57  37  47 SW8       30.41S
TRI CITIES     SUNNY     59  40  49 SW3       30.39R
MIDLAND        FAIR      58  38  47 S7        30.37F
TROY           SUNNY     60  38  44 S6        30.42S
SAGINAW HB     SUNNY     59  36  41 S8        30.37F
$$
MIZ043>046-050>051-056>058-064>065-071>073-077>080-231500-
SOUTHWEST LOWER MICHIGAN

CITY           SKY/WX    TMP DP  RH WIND       PRES   REMARKS
BATTLE CREEK   SUNNY     63  39  41 S7        30.39S
BENTON HARBOR  SUNNY     62  40  44 S9        30.37R
BIG RAPIDS     SUNNY     61  25  25 S8        30.36S
COLDWATER      SUNNY     59  41  50 SE3       30.39S
FREMONT        FAIR      59  32  36 S6        30.37R
HOLLAND        SUNNY     64  39  39 S7        30.37S
GRAND RAPIDS   MOSUNNY   63  38  39 S6        30.37S
IONIA          FAIR      63  36  37 SW9       30.36S
KALAMAZOO      SUNNY     62  37  39 SE5       30.39R
LUDINGTON      SUNNY     62  31  31 S9        30.35S
MARSHALL       SUNNY     62  39  43 S5        30.38S
MOUNT PLEASANT SUNNY     61  36  39 S7        30.36F
MUSKEGON       SUNNY     63  33  32 S8        30.36F
SOUTH HAVEN    SUNNY     63  33  33 S6        30.37R
$$
MIZ016>042-231500-
NORTHERN LOWER MICHIGAN

CITY           SKY/WX    TMP DP  RH WIND       PRES   REMARKS
ALPENA         SUNNY     61  28  28 SW12G21   30.31F
BEAVER ISLAND  SUNNY     56  30  37 SW16G26   30.28S
BELLAIRE       SUNNY     58  29  33 S9G16     30.33S
CADILLAC       SUNNY     61  31  32 SW8       30.33F
CHARLEVOIX     SUNNY     58  30  34 SW14G23   30.33S
FRANKFORT      SUNNY     60  24  25 SW6       30.35S
GAYLORD        SUNNY     59  26  28 W13       30.32F
GRAYLING       SUNNY     61  28  29 SW8       30.34S
HARBOR SPRINGS SUNNY     55  30  39 SW7       30.30F
HOUGHTON LAKE  SUNNY     59  32  36 SW9       30.36S
MANISTEE       SUNNY     59  34  38 SW7       30.36R
OSCODA         SUNNY     60  32  34 SW10G17   30.34F
PELLSTON       SUNNY     60  27  28 SW13G23   30.29F
ROGERS CITY    SUNNY     62  30  30 SW16G23   30.29F
TRAVERSE CITY  MOSUNNY   62  30  29 SW12G18   30.32F
$$
MIZ007>008-015-231500-
EASTERN UPPER MICHIGAN

CITY           SKY/WX    TMP DP  RH WIND       PRES   REMARKS
KINROSS        MOSUNNY   57  32  38 SW14G22   30.25R
MACKINAC ISLAN SUNNY     55  34  44 W12G22    30.27R
NEWBERRY       SUNNY     58  36  44 SW16G22   30.22F
S. S. MARIE    PTSUNNY   53  35  50 S5        30.23F
MUNISING         N/A     65  35  33 SW14      30.20S
$$
MIZ004>006-011>014-085-231500-
CENTRAL UPPER MICHIGAN

CITY           SKY/WX    TMP DP  RH WIND       PRES   REMARKS
MANISTIQUE     SUNNY     50  40  68 SW13      30.26S
ESCANABA       SUNNY     61  37  41 SW6       30.26F
MENOMINEE      SUNNY     61  36  39 SW9       30.29S
SAWYER-GWINN   SUNNY     63  36  36 W15       30.23S
$$
MIZ001>003-009>011-084-231500-
WESTERN UPPER MICHIGAN

CITY           SKY/WX    TMP DP  RH WIND       PRES   REMARKS
IRON MOUNTAIN  SUNNY     67  36  31 SW9       30.25S
HOUGHTON       SUNNY     68  35  29 W25G38    30.17S
COPPER HARBOR    N/A     71  35  26 NW10G28   30.12S
IRONWOOD       SUNNY     66  39  37 SW10      30.21F
$$

ABBREVIATIONS USED IN REMARKS
   TC - TEMPERATURE IN CELSIUS
  WCI - WIND CHILL INDEX
   HX - HEAT INDEX
  VSB - VISIBILITY




USA.gov is the U.S. government's official web portal to all federal, state and local government web resources and services.